Location: Axtheid
(49.6213°N, 11.8205°E)
Time: 08:22:41
(UTC+00:00)

Cosmos 1602 Rocket - Visible Passes

Search period start: 09 May 2021 00:00
Search period end: 19 May 2021 00:00
Orbit: 603 x 633 km, 82.5° (Epoch: 08 May)

Date Brightness Start Highest point End Pass type
(mag) Time Alt. Az. Time Alt. Az. Time Alt. Az.
11 May 6.5 02:56:12 10° ESE 02:58:46 16° E 03:01:22 10° NE visible
15 May 6.3 02:26:46 10° ESE 02:29:27 16° E 02:32:08 10° NE visible
16 May 5.7 02:42:40 10° SE 02:46:19 27° E 02:50:01 10° NNE visible
